User: anonymous   Login
Location: Unspecified
(0.0000°N, 0.0000°E)
Time: 17:55:33
(UTC+00:00)
Language:

TANSAT - Orbit

View from above orbital plane
View from above orbital plane
View from above satellite
View from above satellite

Ground track
Ground track

The orbit data is extracted from the following two-line orbital elements,

1 41898U 16081A   19052.40680799  .00000088  00000-0  30046-4 0  9999
2 41898  98.2336 353.4596 0020285 292.3144  67.5898 14.56604031115235
Epoch (UTC): 21 February 2019 09:45:48
Eccentricity: 0.0020285
inclination: 98.2336°
perigee height: 690 km
apogee height: 718 km
right ascension of ascending node: 353.4596°
argument of perigee: 292.3144°
revolutions per day: 14.56604031
mean anomaly at epoch: 67.5898°
orbit number at epoch: 11523

The dashed part of the orbit path shows where the satellite is in the earth's shadow,  

DLR